EWG3AM EDDL-EPWA

Flight info

Callsign EWG3AM
Flight time N/A
Altitude 37000
Route MEVEL1Z/05R MEVEL L179 MISRI Z851 ROBEG DCT ALUKA DCT TUPUR L29 TADAK DCT NASOK DCT SORIX
Aircraft A320/M-SDE3FGHIRWY/LB1

Departure

Time 2026-04-30 19:22
Airport Düsseldorf Airport (EDDL)

Arrival

Time N/A
Airport Warsaw Chopin Airport (EPWA)
Time Latitude Longitude Altitude Speed Heading
2026-04-30 18:55 51.28029 6.76534 131 ft 0 kts 90°
2026-04-30 19:11 51.28037 6.76478 129 ft 3 kts 146°
2026-04-30 19:11 51.28056 6.76458 126 ft 4 kts 147°
2026-04-30 19:12 51.28078 6.76434 126 ft 4 kts 146°
2026-04-30 19:12 51.28096 6.76415 126 ft 3 kts 146°
2026-04-30 19:12 51.28119 6.76393 127 ft 4 kts 154°
2026-04-30 19:13 51.28166 6.76361 128 ft 4 kts 166°
2026-04-30 19:13 51.28212 6.76385 126 ft 4 kts 231°
2026-04-30 19:13 51.28217 6.76395 126 ft 0 kts 232°
2026-04-30 19:17 51.28191 6.76340 127 ft 8 kts 233°
2026-04-30 19:17 51.28182 6.76268 128 ft 7 kts 289°
2026-04-30 19:18 51.28194 6.76158 126 ft 5 kts 243°
2026-04-30 19:18 51.28142 6.76048 127 ft 10 kts 232°
2026-04-30 19:18 51.28098 6.75955 128 ft 13 kts 233°
2026-04-30 19:19 51.28038 6.75828 128 ft 14 kts 233°
2026-04-30 19:19 51.27984 6.75714 127 ft 12 kts 233°
2026-04-30 19:19 51.27889 6.75516 123 ft 11 kts 233°
2026-04-30 19:20 51.27845 6.75419 123 ft 11 kts 243°
2026-04-30 19:20 51.27871 6.75325 122 ft 10 kts 326°
2026-04-30 19:20 51.28003 6.75291 118 ft 9 kts 43°
2026-04-30 19:21 51.28015 6.75314 120 ft 0 kts 52°
2026-04-30 19:21 51.28070 6.75427 121 ft 44 kts 52°
2026-04-30 19:22 51.28980 6.77332 135 ft 161 kts 52°
2026-04-30 19:22 51.31059 6.81782 2084 ft 173 kts 59°
2026-04-30 19:23 51.33664 6.87326 3162 ft 243 kts 58°
2026-04-30 19:24 51.36500 6.90733 4670 ft 273 kts 23°
2026-04-30 19:24 51.38388 6.91376 5520 ft 279 kts 15°
2026-04-30 19:24 51.42015 6.93457 7204 ft 280 kts 26°
2026-04-30 19:25 51.47519 6.96895 9668 ft 288 kts 26°
2026-04-30 19:26 51.51328 6.99291 10825 ft 310 kts 26°
2026-04-30 19:26 51.55577 7.01991 11611 ft 339 kts 25°
2026-04-30 19:26 51.57791 7.03389 12309 ft 343 kts 25°
2026-04-30 19:27 51.62278 7.06213 13704 ft 350 kts 25°
2026-04-30 19:27 51.66847 7.09102 14966 ft 356 kts 25°
2026-04-30 19:28 51.69156 7.10567 15582 ft 358 kts 25°
2026-04-30 19:28 51.73833 7.13531 16812 ft 364 kts 25°
2026-04-30 19:29 51.78578 7.16544 18019 ft 369 kts 25°
2026-04-30 19:29 51.80977 7.18073 18606 ft 372 kts 26°
2026-04-30 19:30 51.86955 7.25678 20053 ft 369 kts 58°
2026-04-30 19:30 51.89418 7.33009 20982 ft 374 kts 64°
2026-04-30 19:31 51.91860 7.40513 21941 ft 379 kts 63°
2026-04-30 19:31 51.93093 7.44302 22398 ft 382 kts 63°
2026-04-30 19:31 51.95061 7.52324 23259 ft 387 kts 75°
2026-04-30 19:32 51.95776 7.56543 23690 ft 390 kts 75°
2026-04-30 19:32 51.96497 7.60799 24083 ft 393 kts 75°
2026-04-30 19:32 51.97221 7.65080 24446 ft 395 kts 75°
2026-04-30 19:32 51.97950 7.69399 24809 ft 398 kts 75°
2026-04-30 19:33 51.98684 7.73736 25167 ft 400 kts 75°
2026-04-30 19:33 51.99421 7.78101 25520 ft 402 kts 75°
2026-04-30 19:33 52.00159 7.82496 25870 ft 404 kts 75°
2026-04-30 19:33 52.00896 7.86908 26237 ft 406 kts 74°
2026-04-30 19:34 52.01633 7.91335 26615 ft 407 kts 74°
2026-04-30 19:34 52.02368 7.95786 26951 ft 410 kts 74°
2026-04-30 19:34 52.03849 8.04780 27587 ft 415 kts 74°
2026-04-30 19:35 52.04601 8.09321 27909 ft 417 kts 74°
2026-04-30 19:35 52.05356 8.13879 28230 ft 419 kts 74°
2026-04-30 19:35 52.06114 8.18470 28545 ft 421 kts 74°
2026-04-30 19:35 52.06871 8.23076 28867 ft 424 kts 74°
2026-04-30 19:36 52.07634 8.27718 29179 ft 426 kts 74°
2026-04-30 19:36 52.08394 8.32381 29473 ft 428 kts 74°
2026-04-30 19:36 52.09916 8.41786 30086 ft 431 kts 73°
2026-04-30 19:37 52.10675 8.46516 30389 ft 433 kts 73°
2026-04-30 19:37 52.11436 8.51263 30635 ft 435 kts 73°
2026-04-30 19:37 52.11943 8.54424 30794 ft 436 kts 73°
2026-04-30 19:37 52.12711 8.59208 31029 ft 438 kts 73°
2026-04-30 19:38 52.13478 8.64004 31256 ft 439 kts 74°
2026-04-30 19:38 52.14246 8.68820 31554 ft 439 kts 74°
2026-04-30 19:38 52.15008 8.73622 31883 ft 438 kts 74°
2026-04-30 19:38 52.15766 8.78420 32218 ft 437 kts 74°
2026-04-30 19:39 52.16520 8.83209 32539 ft 436 kts 74°
2026-04-30 19:39 52.17270 8.87995 32874 ft 436 kts 74°
2026-04-30 19:39 52.18016 8.92771 33223 ft 434 kts 74°
2026-04-30 19:39 52.18760 8.97530 33573 ft 433 kts 74°
2026-04-30 19:40 52.19506 9.02278 33858 ft 433 kts 73°
2026-04-30 19:40 52.20254 9.07028 34159 ft 433 kts 73°
2026-04-30 19:40 52.21000 9.11782 34459 ft 432 kts 74°
2026-04-30 19:40 52.21741 9.16525 34723 ft 432 kts 74°
2026-04-30 19:41 52.22477 9.21265 35000 ft 431 kts 74°
2026-04-30 19:41 52.23213 9.26005 35267 ft 430 kts 74°
2026-04-30 19:41 52.23947 9.30728 35537 ft 429 kts 74°
2026-04-30 19:41 52.24678 9.35440 35805 ft 428 kts 74°
2026-04-30 19:42 52.25410 9.40151 36077 ft 428 kts 74°
2026-04-30 19:42 52.26137 9.44855 36314 ft 427 kts 74°
2026-04-30 19:42 52.26849 9.49488 36538 ft 426 kts 74°
2026-04-30 19:42 52.27568 9.54182 36771 ft 426 kts 74°
2026-04-30 19:43 52.28285 9.58863 36991 ft 425 kts 74°
2026-04-30 19:43 52.28999 9.63550 37201 ft 425 kts 74°
2026-04-30 19:43 52.29709 9.68221 37386 ft 424 kts 74°
2026-04-30 19:44 52.31117 9.77535 37437 ft 423 kts 74°
2026-04-30 19:44 52.32519 9.86866 37438 ft 423 kts 74°
2026-04-30 19:45 52.33919 9.96211 37447 ft 422 kts 74°
2026-04-30 19:45 52.35305 10.05533 37440 ft 423 kts 74°
2026-04-30 19:46 52.36687 10.14887 37437 ft 423 kts 74°
2026-04-30 19:46 52.38059 10.24248 37440 ft 423 kts 74°
2026-04-30 19:47 52.39425 10.33619 37441 ft 423 kts 74°
2026-04-30 19:47 52.40783 10.42991 37440 ft 423 kts 74°
2026-04-30 19:48 52.42140 10.52380 37457 ft 423 kts 74°
2026-04-30 19:48 52.43483 10.61755 37455 ft 422 kts 74°
2026-04-30 19:49 52.44816 10.71128 37452 ft 422 kts 74°
2026-04-30 19:49 52.46811 10.85192 37453 ft 422 kts 74°
2026-04-30 19:50 52.48125 10.94570 37453 ft 422 kts 74°
2026-04-30 19:50 52.49437 11.03959 37467 ft 422 kts 74°
2026-04-30 19:51 52.50735 11.13343 37459 ft 421 kts 74°
2026-04-30 19:51 52.52023 11.22727 37461 ft 421 kts 74°
2026-04-30 19:52 52.53302 11.32107 37455 ft 421 kts 74°
2026-04-30 19:52 52.54571 11.41491 37453 ft 421 kts 75°
2026-04-30 19:53 52.55837 11.50869 37449 ft 421 kts 75°
2026-04-30 19:53 52.57101 11.60264 37467 ft 420 kts 74°
2026-04-30 19:54 52.58352 11.69640 37461 ft 419 kts 74°
2026-04-30 19:54 52.59592 11.78992 37455 ft 418 kts 74°
2026-04-30 19:55 52.60824 11.88330 37448 ft 418 kts 74°
2026-04-30 19:55 52.62041 11.97670 37445 ft 417 kts 75°
2026-04-30 19:56 52.63251 12.07013 37441 ft 417 kts 75°
2026-04-30 19:56 52.64454 12.16358 37456 ft 417 kts 74°
2026-04-30 19:57 52.65651 12.25705 37449 ft 417 kts 74°
2026-04-30 19:57 52.66840 12.35059 37446 ft 417 kts 74°
2026-04-30 19:58 52.68025 12.44411 37446 ft 417 kts 74°
2026-04-30 19:58 52.69201 12.53766 37442 ft 417 kts 75°
2026-04-30 19:59 52.70369 12.63125 37440 ft 417 kts 75°
2026-04-30 20:00 52.72101 12.77100 37454 ft 416 kts 74°
2026-04-30 20:00 52.73250 12.86494 37451 ft 415 kts 75°
2026-04-30 20:01 52.74951 13.00488 37435 ft 414 kts 75°
2026-04-30 20:01 52.76077 13.09818 37433 ft 414 kts 75°
2026-04-30 20:02 52.77744 13.23827 37455 ft 414 kts 74°
2026-04-30 20:03 52.79392 13.37756 37448 ft 413 kts 74°
2026-04-30 20:03 52.79984 13.47228 37442 ft 418 kts 84°
2026-04-30 20:04 52.80082 13.56824 37440 ft 418 kts 84°
2026-04-30 20:05 52.80211 13.71227 37435 ft 418 kts 84°
2026-04-30 20:05 52.80316 13.85601 37447 ft 416 kts 84°
2026-04-30 20:06 52.80377 13.95157 37442 ft 415 kts 84°
2026-04-30 20:06 52.80434 14.04751 37436 ft 415 kts 84°
2026-04-30 20:07 52.80475 14.14212 37431 ft 414 kts 84°
2026-04-30 20:08 52.80534 14.28489 37454 ft 414 kts 84°
2026-04-30 20:08 52.80569 14.37991 37446 ft 413 kts 84°
2026-04-30 20:09 52.80588 14.47473 37444 ft 412 kts 84°
2026-04-30 20:09 52.80599 14.61680 37438 ft 412 kts 84°
2026-04-30 20:10 52.80602 14.75876 37441 ft 412 kts 84°
2026-04-30 20:11 52.80585 14.90067 37426 ft 411 kts 84°
2026-04-30 20:11 52.80570 14.99529 37419 ft 412 kts 84°
2026-04-30 20:12 52.80522 15.13756 37417 ft 413 kts 84°
2026-04-30 20:13 52.80481 15.23260 37426 ft 413 kts 84°
2026-04-30 20:13 52.80434 15.32755 37448 ft 413 kts 84°
2026-04-30 20:14 52.80378 15.42242 37442 ft 412 kts 84°
2026-04-30 20:14 52.80314 15.51713 37447 ft 412 kts 84°
2026-04-30 20:15 52.80245 15.61171 37432 ft 412 kts 84°
2026-04-30 20:15 52.80169 15.70629 37428 ft 412 kts 84°
2026-04-30 20:16 52.80091 15.80091 37481 ft 412 kts 84°
2026-04-30 20:16 52.80005 15.89526 37438 ft 410 kts 84°
2026-04-30 20:17 52.79908 15.98936 37433 ft 409 kts 84°
2026-04-30 20:17 52.79795 16.08344 37432 ft 409 kts 85°
2026-04-30 20:18 52.79671 16.17751 37425 ft 409 kts 85°
2026-04-30 20:18 52.79550 16.27150 37424 ft 409 kts 85°
2026-04-30 20:19 52.79450 16.35028 37439 ft 408 kts 85°
2026-04-30 20:19 52.79322 16.44307 37431 ft 406 kts 85°
2026-04-30 20:20 52.79182 16.53641 37426 ft 406 kts 85°
2026-04-30 20:20 52.79026 16.62961 37424 ft 406 kts 85°
2026-04-30 20:21 52.78873 16.72290 37422 ft 406 kts 85°
2026-04-30 20:21 52.78717 16.81608 37416 ft 406 kts 85°
2026-04-30 20:22 52.78545 16.90920 37413 ft 404 kts 85°